Showing default

LEGION 5, 62900

Orbit data source: Space-Track

LEGION 5, 62900 is a payload satellite owned by Maxar Intel (US) in LEO that was launched on Tue, 04 Feb 2025 UTC via an FALCON 9 launch vehicle from the Air Force Eastern Test Range (AFETR). Payload-class satellites include a variety of spacecraft equipped with specific instruments for various scientific and technological missions. These include communications satellites like Starlink; space stations such as the ISS; scientific satellites like the Hubble; Earth observation satellites from companies like Planet Labs, Umbra, and HawkEye 360; GPS; miniature CubeSats for education and research; and military/defense satellites.

Loading next visibility...
Identifier
62900, 2025-025A
Orbit
LEO
Country
Flag of USUS
Related business
Manufacturer
Maxar Space Inf
Mission
Operational Commercial Imaging
Bus & Motor
LEGION, Unknown motor
Mass
~700 kg wet, 630 kg dry
Launch date (UTC)
2025-02-04 (7 months ago)
Launch vehicle
FALCON 9
Launch site
Air Force Eastern Test Range (AFETR)
Object type
Payload
Rocket body
Debris
Shape & HBR
Box + 1 Pan, 2.5 m
Radar Cross Section
9.079 m², Large (>1 m²)

Expand to show TLE details & history
Last TLE update: 17 hours ago

TLE from 17 hours ago
0 LEGION 5
1 62900U 25025A   25260.24348443  .00005255  00000-0  26867-3 0  9997
2 62900  45.0469 324.3699 0016393 270.4548  89.4454 15.17680489 33071
Epoch: 2025-09-17T05:50Z
TLE epoch observation values (Epoch: 2025-09-17T05:50:37.054Z)
Latitude
Longitude
-119.70671°
Altitude
512.766 km
Speed
7.609 km/s
True Right ascension
21h 37m 28s
True Declination
0° 00' 00"
Sunlit
Object was in full shadow at epoch
Visualization orbit readout
Latitude
Unknown
Longitude
Unknown
Altitude
Unknown
Speed
Unknown
Apparent Right ascension
Unknown
Apparent Declination
Unknown
Sunlit
N/A
Visualization observer readout
Local Sidereal Time
15:18:36
Azimuth
Unknown
Elevation
Unknown
Doppler factor
Unknown
Orbital elements
Apogee altitude
525.746 km
Perigee altitude
503.148 km
Semi-major axis
6,892.584 km
Eccentricity
0.00164
Inclination
45.0469°
RAAN
324.3699°
Arg. of periapsis
270.4548°
True anomaly
89.63324°
Mean anomaly
89.4454°
Eccentric anomaly
89.53932°
Mean motion
3.79289 °/min
Orbital period
94.91 mins
BSTAR
0.00026867
Loading maneuver chart data...
Computing Atmospheric mass density...
Loading historical data...
Loading historical data...
Loading historical data...
Loading historical data...
Loading historical data...
Loading historical data...
Loading historical data...
Other satellites on launch #25 in the year 2025 (2025-02-04 UTC)

Documentation

Showing up to 5 results
|